星链-36817(STARLINK-36817)

导读

STARLINK-36817是美国SpaceX星链星座的卫星,于2026年2月21日发射升空,归属美国所有。它延续星链低轨互联网星座布局,承载全球覆盖的卫星互联网服务使命,依托低轨轨道优势,可提供低延迟高速网络接入,补充地面通信覆盖盲区,推动全球互联互通,也是星链星座规模化组网建设的组成单元。

基本信息
目录编号:
67882
目录名称:
STARLINK-36817
国际标识:
2026-035D
轨道中心:
EARTH
卫星名称:
星链-36817
卫星全名:
星链-36817(STARLINK-36817)
卫星状态:
在轨 (已飞行195 天)
发射日期:
2026-02-21 UTC
国别 :
美国 (US)
星等 :
--
轨道信息
数据来源 国际轨道数据
星历时间: 2026-09-03T16:21:57+0800
1天前
查看轨道信息
半长轴: 6843.681km
偏心率: 0.0001766
轨道倾角: 97.283°
近地点辐角 105.875°
升交点赤经 178.427°
平近点角 254.269°
近地点: 464.335km
远地点: 466.753km
周期: 93.906分钟
每日圈数: 15.334449
详细信息
固有亮度:
5
最大亮度:
2.5
卫星平台:
Starlink V1.0
覆盖范围:
全球
运营商:
太空探索技术公司
运营商所在国:
美国
制造商(研发单位):
太空探索技术公司
制造商所在国:
美国
使用方式:
暂无
卫星简介
Starlink 计划是 SpaceX 推出的全球卫星互联网项目,通过发射低轨道卫星,为全球尤其是偏远地区提供高速、低延迟的互联网服务。自 2019 年起,Starlink 已部署数千颗卫星,旨在缩小全球数字鸿沟,推动互联网普及。该项目还为军事、航空等行业提供通信支持,带来广泛经济效益。
2D轨道图
3D轨道图
轨道高度分析图
轨道倾角分析图
轨道综合分析图
查看轨道综合分析图
交会数据列表
事件ID 空间交会对象 最接近时刻(TCA) 交会距离 交会风险概率(CRP) 交会风险指数(CRI) 操作
CDM_260829-173505-674806-788221
OBJECT F (56748)
2026-08-29T
17:35:42+0000
0.468 km
远距离
1.997314E-4 高风险 0.81
CDM_260829-172204-603906-788221
2026-08-29T
17:22:52+0000
2.535 km
极远距离
1.635099E-6 低风险 0.39